Regional Weather Roundup
Issued by NWS San Diego, CA

Home | Current Version | Previous Version | Text Only | Print | Product List | Glossary On
Versions: 1 2 3 4 5 6 7 8 9 10 11 12 13 14 15 16 17 18 19 20 21 22 23 24 25 26 27 28 29 30 31 32 33 34 35 36 37 38 39 40 41 42 43 44 45 46 47 48 49 50
000
ASUS46 KSGX 220910
RWRSGX

SAN DIEGO HOURLY WEATHER ROUNDUP
NATIONAL WEATHER SERVICE SAN DIEGO CA
200 AM PDT WED OCT 22 2014

NOTE: "FAIR" INDICATES FEW OR NO CLOUDS BELOW 12,000 FEET WITH NO
SIGNIFICANT WEATHER AND/OR OBSTRUCTIONS TO VISIBILITY.

CAZ042-043-060-061-PZZ750-775-221000-

GREATER SAN DIEGO AREA

CITY           SKY/WX    TMP DP  RH WIND       PRES   REMARKS
LINDBERGH FLD  PTCLDY    64  59  83 N3        29.90R
POINT LOMA       N/A     64  61  91 NW1         N/A
NATIONAL CITY    N/A     63  60  88 N3        29.90R
CHULA VISTA      N/A     59  57  94 CALM      29.82S
IMPERIAL BEACH CLEAR     57  56  96 CALM      29.89R
BROWN FIELD    CLEAR     59  57  93 CALM      29.89R FOG
MIRAMAR MCAS   MOCLDY    58  55  90 NE5       29.89S FOG
MONTGOMERY FLD CLEAR     61  58  90 NE3       29.89S FOG

$$

NORTH SAN DIEGO COUNTY

CITY           SKY/WX    TMP DP  RH WIND       PRES   REMARKS
CAMP PENDLETON CLOUDY    61  56  83 NE5       29.87F HAZE
OCEANSIDE AP   MOCLDY    60  57  89 N3        29.87F
OCEANSIDE HBR    N/A     61  59  92 E3        29.89F
VISTA            N/A     62  59  88 CALM      29.86F
CARLSBAD       MOCLDY    64  59  83 E5        29.87F
DEL MAR          N/A     63  62  96 CALM      29.91S
FALLBROOK        N/A     60  60 100 CALM      29.88S
ESCONDIDO        N/A     59  55  86 CALM      29.91S
SAN MARCOS       N/A     60  56  87 CALM      29.87S
POWAY            N/A     55  52  92 CALM      29.91R

$$

EAST SAN DIEGO COUNTY

CITY           SKY/WX    TMP DP  RH WIND       PRES   REMARKS
RAMONA         PTCLDY    49  46  90 CALM      29.92R
SANTEE LAKES     N/A     56  54  94 CALM      29.91R
LA MESA          N/A     61  59  92 CALM      29.83S
JAMUL            N/A     57  56  95 CALM      29.89R
DESCANSO N       N/A     52  18  26 E2        29.80S
MT. LAGUNA OBS   N/A     58  -5   7 NW1       29.68S
CAMPO            N/A     46  40  79 NE6       29.92F

$$

ORANGE COUNTY AND THE LOS ANGELES BASIN

CITY           SKY/WX    TMP DP  RH WIND       PRES   REMARKS
JOHN WAYNE AP  CLEAR     65  58  78 CALM      29.87F
LAKE FOREST FR   N/A     59  50  72 CALM      29.78F
SANTA ANA        N/A     61  57  87 CALM      29.83F
HUNTINGTON BCH   N/A     59  58  97 CALM      29.90F
LOS ALAMITOS   FAIR      61  60  97 NE2       29.88S
FULLERTON      CLEAR     62  55  77 CALM      29.87S
LONG BEACH     CLEAR     63  60  90 CALM      29.88R
L.A. AP        CLEAR     64  62  93 E3        29.88R
L.A. DOWNTOWN  CLEAR     64  60  87 CALM      29.87S

$$

THE INLAND EMPIRE

CITY           SKY/WX    TMP DP  RH WIND       PRES   REMARKS
CORONA         CLEAR     54  51  89 CALM      29.89S
CHINO          CLEAR     56  53  90 CALM      29.90S FOG
ONTARIO        PTCLDY    62  54  74 N3        29.89F
RIVERSIDE AP   CLEAR     61  56  83 SE3       29.89F
RIV CYN CREST    N/A     61  61  99 S1        29.87S
MORENO VALLEY    N/A     60  55  83 CALM      29.10S
MARCH ARB      CLEAR     54  50  85 NE2       29.91F
HORSETHIEF CYN   N/A     59  45  58 SW2       29.92S
PERRIS           N/A     62  57  84 CALM      29.89S
MENIFEE          N/A     59  55  88 CALM      29.95S
HEMET EAST       N/A     59  38  44 CALM      29.89S
FRENCH VALLEY  FAIR      54  48  82 SE3       29.91F
TEMECULA         N/A     56  54  91 CALM      29.87S

$$

SAN BERNARDINO AND RIVERSIDE COUNTY MOUNTAINS

CITY           SKY/WX    TMP DP  RH WIND       PRES   REMARKS
BIG BEAR AP    CLEAR     32   9  37 CALM      30.14F
ANGELUS OAKS     N/A     51  16  25 CALM      29.86S
PINE COVE        N/A     56   4  12 N3        29.81F

$$

SOUTHERN DESERT INCLUDING THE COACHELLA VALLEY

CITY           SKY/WX    TMP DP  RH WIND       PRES   REMARKS
PALM SPRINGS   CLEAR     74  46  36 NW9       29.84S
THOUSAND PALMS   N/A     78  47  33 NW10      29.78S
PALM DESERT      N/A     69  50  50 CALM        N/A
THERMAL        CLEAR     69  48  47 N7        29.77S
BLYTHE         CLEAR     69  47  45 N5        29.81R
IMPERIAL AP    CLEAR     70  48  45 W5        29.77S
EL CENTRO NAS  CLEAR     69  43  38 W8        29.78S
YUMA AZ        PTCLDY    75  61  61 CALM      29.80S

$$

UPPER DESERT

CITY           SKY/WX    TMP DP  RH WIND       PRES   REMARKS
VICTORVILLE AP CLEAR     54  36  50 SW6       29.97S
HESPERIA         N/A     51  38  60 CALM      30.03S
APPLE VALLEY     N/A     52  34  50 CALM      30.06S
PALMDALE       CLEAR     48  32  53 SE7       29.97R
LANCASTER      CLEAR     57  42  57 W9        29.96R
EDWARDS AFB    CLEAR     55  40  56 SW8       29.94S
DAGGETT        CLEAR     58  36  43 W10       29.94R
29 PALMS N     CLEAR     65  34  31 W12       29.99R
NEEDLES        CLEAR     72  44  36 SW3       29.84R

$$

REGIONAL REPORTS

CITY           SKY/WX    TMP DP  RH WIND       PRES   REMARKS
SANTA BARBARA  CLEAR     57  52  83 CALM      29.86F
SANDBERG       CLEAR     51  40  65 N31G44    30.04F
MT. WILSON       N/A     59  14  17 MISG        N/A
LAS VEGAS NV   PTCLDY    66  24  20 S9        29.86R
PHOENIX AZ     CLEAR     72  52  49 SE3       29.85S
TIJUANA        CLEAR     59  55  88 NW3       29.91S

$$

OFFSHORE ISLANDS

CITY           SKY/WX    TMP DP  RH WIND       PRES   REMARKS
CATALINA ARPT  CLEAR     65  44  46 SE3       29.91S
SAN NICOLAS IS CLEAR    N/A N/A N/A W10       29.87S

$$

MARINE AND OFFSHORE BUOY REPORTS

STATION/POSITION SKY/WX   TEMP    WIND        PRES    SWELL
                          AIR SEA DIR/SP/G            HT/PER/DIR
                          (F)     (DEG/KT/KT) (MB)    (FT/S/D)
TANNER BANKS               67 69  320/ 17/ 21 1011.9F  11/320/15
S CLEMENTE BASIN           68 71  300/  6/  8 1011.7F   8/300/15
SAN NICOLAS IS.               68                N/A    10/300/14
SO. S. ROSA ISLA           66 68  330/ 21/ 27 1010.9R   8/15
W. S. BARBARA CH           64 64  330/ 17/ 21 1011.2R  10/320/15
S. MONICA BASIN            69 71  360/  8/ 10 1010.9F   7/270/ 9
S PEDRO CHANNEL               71                N/A     3/270/11
DANA POINT                    70                N/A     3/280/13
CMP PENDLETON NS              70                N/A     2/250/12
OCEANSIDE OFFSHR              71                N/A     3/270/13
TORREY PINES OTR              72                N/A     5/270/15
LA JOLLA 1                 67 71   30/  2/  3 1012.1S
MISSION BAY BUOY              72                N/A     5/280/15
SAN DIEGO BAY                 74              1012.7R
POINT LOMA SOUTH              71                N/A     7/280/14

$$




USA.gov is the U.S. government's official web portal to all federal, state and local government web resources and services.